Weather in Chiba

Japan     35˚36′14″N   140˚10′35″E
temp.,
°C
wind,
m/s
gust,
m/s
humid.,
%
clouds,
%
prec.,
mm/h
press.,
hPa
HPBL,
m
16 january, sat
sat1600:00+7˚wnw247029 0.0 1018196
03:00+6˚sw128015 0.0 101636
06:00+6˚ssw23890 0.0 101574
09:00+12˚sw411690 0.0 1013959
12:00+16˚sw816450 0.0 10101439
15:00+17˚wsw916452 0.0 10081470
18:00+14˚wnw48460 0.0 1011762
21:00+11˚ne266713 0.0 1011382
17 january, sun
sun1700:00+9˚ne485968 0.0 1013544
03:00+8˚nne345182 0.0 1014582
06:00+7˚ne3550100 0.0 1015587
09:00+7˚ne3665100 0.0 1016614
12:00+8˚nne3563100 0.0 1013650
15:00+6˚n3576100 0.1 1012509
18:00+5˚n3580100 0.1 1014380
21:00+4˚n488399 0.2 1016423
18 january, mon
mon1800:00+4˚n4789100 0.6 1017363
03:00+2˚n3691100 2.1 1017371
06:00+2˚nnw2479100 0.4 1017319
09:00+1˚nnw3693100 1.3 1017298
12:00+3˚n238499 0.5 1015263
15:00+6˚w026772 0.5 1012464
18:00+6˚ssw211620 0.0 1012937
21:00+7˚wsw815420 0.0 10101305
19 january, tue
tue1900:00+8˚wsw918520 0.0 10081509
03:00+6˚wnw39470 0.0 1010561
06:00+4˚n49350 0.0 10131137
09:00+4˚nnw510250 0.0 10171088
12:00+6˚nnw58200 0.0 10181209
15:00+6˚nnw58180 0.0 10201181
18:00+3˚nnw510210 0.0 1023781
21:00+2˚nnw49210 0.0 1026710
20 january, wed
wed2000:00+1˚nnw48240 0.0 1027552
03:00nnw36270 0.0 1028455
06:00+1˚n242840 0.0 1029290
09:00+2˚n243169 0.0 1030288
12:00+4˚nne2338100 0.0 1029496
15:00+4˚ene2369100 0.0 1028433
18:00+3˚nne2484100 0.1 1029217
21:00+4˚n2380100 0.1 1028189